Wetbulb
54.51 53.74 53.75 53.48 54.18 53.59 53.65 53.75 53.46 53.60 54.22 54.52 54.70 55.53 55.76 55.39 55.69 53.22 49.13 48.35 45.95 46.11 48.11 53.50 54.22 47.24 46.25 42.68 41.60 42.30 42.81 43.18 40.21 37.93 37.25 36.32 34.86 36.67 36.13 37.12 35.63 34.89 34.55 33.73 34.05 33.78 33.35 49.52 49.48 43.66 45.13 49.31 52.44 54.63
53.89 53.79 53.35 53.32 53.45 53.06 53.41 53.38 53.55 54.20 54.30 53.94 54.42 55.37 55.51 55.36 55.24 54.51 47.66 48.62 49.29 44.86 47.40 52.91 55.79 57.49 52.74 46.98 42.70 39.73 42.74 40.94 43.01 39.21 38.05 38.00 37.34 35.20 33.45 33.84 38.17 34.95 36.87 36.50 37.79 37.26 42.75 47.54 47.62 49.65 49.59 51.19 53.53 55.00
53.37 53.16 53.00 52.99 53.00 52.92 53.08 53.24 53.43 53.69 53.50 53.48 53.96 54.84 55.79 55.48 55.10 54.49 48.74 47.68 47.14 47.46 50.63 50.86 53.16 49.14 47.76 47.69 48.15 45.23 44.36 45.09 42.52 42.24 40.23 38.41 37.74 37.42 34.67 35.62 37.03 40.09 40.64 39.99 40.35 41.96 46.34 47.58 49.77 50.29 50.96 50.78 52.53 56.61
53.12 53.19 52.69 52.62 52.78 52.74 52.90 53.04 53.29 53.26 52.99 53.28 53.59 54.55 55.46 55.40 55.03 55.01 51.43 46.47 45.59 45.70 46.65 50.07 52.81 48.37 49.30 49.15 50.56 49.18 49.06 45.53 43.87 41.15 36.99 35.98 36.76 39.21 35.92 38.56 37.97 40.57 40.70 39.63 39.58 42.63 46.39 48.70 49.52 50.99 51.52 54.33 55.46 58.48
52.56 52.67 52.38 52.40 52.58 52.47 52.65 52.94 53.00 53.04 52.81 53.22 53.21 53.52 55.32 55.38 54.43 54.24 53.61 52.39 49.62 46.73 46.22 48.24 50.24 49.58 47.14 49.84 50.44 49.11 46.94 43.74 41.28 40.62 38.24 37.83 36.92 40.23 36.84 37.03 35.87 42.02 40.06 38.97 38.08 43.15 45.50 44.13 47.85 51.79 51.66 56.12 58.00 57.38
52.25 51.99 51.82 52.07 52.38 52.25 52.54 52.76 52.94 53.00 52.71 53.39 53.53 53.13 54.61 54.78 54.15 50.12 42.62 49.49 51.65 47.63 48.22 45.37 48.28 45.57 47.48 49.06 48.44 47.28 46.27 43.63 42.05 41.21 39.01 38.91 43.72 40.83 36.52 34.39 39.76 41.34 42.81 43.36 43.69 43.64 45.93 48.89 50.16 52.47 51.46 52.84 58.02 57.04
51.45 51.24 51.36 51.71 52.11 52.19 52.59 52.87 52.99 52.86 52.88 53.40 53.56 53.25 53.68 53.92 51.55 44.39 44.76 47.88 50.61 49.54 48.19 46.00 42.43 46.17 47.85 46.77 46.03 45.00 43.96 42.92 42.79 40.06 39.70 42.91 41.84 40.16 37.06 36.05 42.53 43.68 46.31 45.41 47.65 48.87 47.23 49.96 48.58 51.72 53.58 54.88 55.48 57.06
51.18 50.86 50.42 51.11 52.02 52.27 52.61 52.56 52.92 52.95 52.89 53.41 53.11 53.03 52.73 53.06 51.85 47.48 48.28 51.66 49.51 48.58 50.23 43.56 42.25 43.66 47.12 43.75 43.31 43.75 42.56 41.61 40.89 39.42 41.00 41.92 42.16 40.16 37.90 40.90 41.56 43.89 48.30 49.47 49.39 48.21 47.34 48.34 49.24 51.28 53.21 57.22 56.47 55.68
50.80 50.65 50.51 51.03 51.85 52.30 52.47 52.46 52.86 52.86 52.79 53.24 52.98 52.65 47.78 45.34 41.41 45.98 54.61 54.11 49.89 51.34 47.14 44.07 43.33 40.25 46.92 43.08 43.90 43.99 42.75 40.15 41.62 38.67 38.32 42.63 38.46 36.50 41.99 42.66 43.95 45.46 48.02 49.19 49.63 49.14 49.99 49.82 49.06 49.71 51.87 54.55 55.50 55.06
50.69 50.66 50.65 51.01 51.67 52.23 52.56 52.35 52.70 52.65 52.51 52.83 49.36 45.72 42.13 46.25 54.19 54.53 49.82 47.43 47.41 50.03 51.35 47.82 45.59 43.78 46.24 42.84 42.29 43.21 41.54 40.21 38.81 41.25 41.92 38.93 37.25 41.65 43.74 44.42 45.91 46.94 48.80 49.25 47.79 46.50 47.31 47.10 48.70 48.58 50.15 51.54 54.00 55.87
51.00 50.78 50.86 51.39 51.67 52.16 52.40 52.23 52.53 52.09 52.42 50.38 48.47 48.39 49.96 53.24 47.48 45.25 43.89 41.58 41.77 41.66 45.32 48.38 45.75 44.03 48.33 44.72 42.85 43.83 41.25 40.33 37.47 40.12 40.91 37.74 37.02 42.05 44.60 44.49 45.59 46.98 49.45 49.81 50.62 50.56 49.84 48.93 50.05 49.50 50.35 51.74 53.30 56.11
50.85 50.69 50.94 51.33 51.62 51.87 52.20 52.15 51.93 48.61 48.73 48.21 48.30 50.03 50.55 48.68 44.28 41.50 40.58 40.73 40.86 39.76 43.20 45.87 47.30 47.01 47.53 49.06 46.25 44.01 41.53 41.28 38.37 42.55 40.25 36.24 41.10 43.79 44.78 45.20 46.61 46.07 48.98 50.03 50.63 50.58 50.45 49.99 50.99 50.38 50.95 52.38 54.01 55.81
50.65 50.56 50.53 50.82 51.29 51.77 51.85 51.77 51.76 51.64 50.25 51.02 49.76 48.74 45.09 43.78 36.92 38.87 36.82 38.69 38.05 42.65 43.69 44.16 45.25 46.41 47.06 47.60 45.56 43.52 40.88 39.71 43.56 39.76 37.75 40.74 43.42 44.44 46.24 46.39 46.89 46.65 48.73 49.54 50.22 50.80 50.92 50.72 50.90 51.25 51.60 51.91 53.01 53.69
50.15 50.33 50.22 50.30 50.70 50.97 51.20 51.34 51.81 50.42 47.81 46.22 45.48 37.72 41.82 39.84 39.78 39.79 39.92 40.51 43.66 44.61 44.74 42.90 42.09 43.83 43.53 44.57 45.06 42.36 42.93 43.14 39.30 35.72 39.27 42.96 45.16 45.89 47.20 47.24 47.14 46.80 47.59 48.36 49.23 49.84 50.32 50.22 50.46 51.43 51.40 51.45 51.13 51.07
49.85 50.06 50.28 50.37 50.85 51.42 51.43 51.08 51.50 48.74 49.58 45.27 44.23 38.01 42.53 43.79 43.77 44.50 45.13 44.27 45.86 48.39 46.37 43.16 44.19 45.12 42.60 42.75 43.16 42.35 40.95 40.52 40.20 39.52 42.63 44.38 45.07 46.02 46.72 47.10 47.18 46.94 46.52 47.07 47.55 48.52 49.23 49.53 49.41 48.53 49.21 49.48 50.16 50.17
49.72 49.89 48.99 50.58 51.30 51.99 51.49 50.70 49.37 49.20 49.27 47.09 45.18 42.57 44.33 41.88 43.48 43.15 44.18 44.38 47.56 47.95 49.54 48.15 44.29 42.77 42.22 41.42 41.31 41.12 40.77 39.47 41.79 44.42 45.44 44.85 45.10 45.56 46.64 47.51 47.29 46.87 46.47 46.54 46.99 47.73 48.12 48.17 48.36 48.36 47.44 48.05 48.61 49.49
49.40 45.89 50.94 51.82 52.00 51.40 51.12 49.63 50.77 47.44 45.82 44.14 41.00 44.24 42.19 42.60 43.54 45.12 46.27 45.71 47.64 47.28 44.74 46.21 43.41 43.78 44.43 39.84 40.11 42.99 41.82 44.05 45.69 46.25 46.74 47.51 47.53 46.27 46.71 46.97 46.78 46.63 46.36 46.03 46.20 46.38 46.41 46.84 47.00 47.23 46.56 47.07 47.59 48.21
46.06 50.95 51.76 51.79 50.70 50.46 49.57 49.57 47.88 46.24 42.71 42.09 38.94 40.23 43.15 43.55 45.37 47.25 48.92 49.21 46.34 46.03 47.14 44.57 47.86 44.60 42.36 41.05 39.69 44.27 46.25 47.65 46.83 47.71 49.57 49.61 48.27 47.35 48.32 47.25 47.56 47.38 46.39 46.24 46.03 45.47 46.18 46.75 47.22 47.85 47.15 47.19 47.40 47.79
49.78 49.89 50.86 51.84 50.93 49.83 46.51 46.94 47.27 42.88 43.88 44.44 42.18 41.79 42.47 42.93 44.39 45.69 47.12 50.24 50.15 48.99 48.00 45.81 43.75 42.18 43.19 45.42 47.82 48.43 50.47 49.20 48.91 49.50 50.32 49.67 49.24 49.31 49.32 49.52 49.13 48.86 48.38 47.19 45.83 46.19 47.01 47.76 48.50 47.77 48.35 48.79 48.46 49.55
50.24 50.49 50.59 51.39 51.68 48.10 45.84 45.42 48.93 44.24 41.47 43.52 42.59 40.09 41.13 41.11 42.49 43.56 45.05 45.97 49.02 47.71 44.07 43.92 43.35 46.00 46.76 49.65 51.88 51.46 51.57 51.95 51.30 50.29 50.04 50.78 51.40 51.40 51.60 52.33 50.95 50.10 48.60 47.85 46.85 45.06 46.62 46.76 47.77 48.41 49.80 49.90 49.56 49.05
49.46 49.39 50.63 50.64 49.83 48.60 46.58 45.82 45.37 45.55 45.75 44.88 47.37 46.01 43.37 41.95 41.96 42.33 43.00 46.74 45.62 45.12 43.94 45.50 47.24 49.63 51.82 52.48 52.71 52.77 52.69 52.16 51.37 51.91 51.22 51.15 52.72 53.22 52.94 52.76 52.25 50.69 49.30 47.66 47.55 46.28 46.21 47.36 47.56 48.22 49.07 48.99 49.80 49.04
47.81 51.54 47.70 49.57 46.29 47.84 46.09 45.77 45.08 47.10 45.89 46.71 47.34 48.97 46.57 42.42 41.85 42.83 45.16 44.00 43.35 44.67 45.56 46.77 47.77 48.98 50.20 51.33 51.37 52.83 52.38 53.24 53.38 52.40 49.85 51.59 53.15 51.91 50.66 50.50 50.40 49.03 47.80 47.62 47.51 47.21 46.93 46.76 47.39 47.55 48.33 48.14 46.31 47.07
50.63 50.82 48.84 48.18 44.36 42.03 41.26 46.25 44.66 44.96 43.00 45.13 48.59 46.34 45.51 45.95 46.09 46.84 43.50 45.11 47.07 48.22 49.17 48.87 48.75 49.45 50.43 52.66 53.45 53.18 53.79 52.49 51.59 51.61 52.20 53.13 52.55 51.56 50.68 49.15 49.43 48.41 47.15 46.80 47.81 47.47 46.52 44.14 45.46 47.13 47.08 46.40 46.35 45.99
49.82 47.48 45.10 44.38 42.93 39.79 45.20 43.69 45.72 43.12 44.32 42.79 43.19 43.68 45.94 46.60 49.23 46.42 44.17 46.32 48.30 50.29 49.34 48.06 49.84 49.88 51.63 51.27 51.31 52.19 53.07 53.06 51.92 51.70 52.13 52.10 51.03 50.09 50.43 49.86 49.42 49.69 50.09 49.38 48.18 47.40 46.87 46.96 44.43 46.35 46.56 45.68 45.08 45.42
41.23 40.56 42.27 36.52 45.77 42.87 42.23 41.70 42.82 42.83 42.79 43.97 41.90 42.38 43.00 45.96 42.79 42.05 42.71 46.87 49.00 48.70 49.44 50.65 51.58 51.52 50.70 50.40 50.43 51.14 51.61 52.28 51.03 50.72 52.27 52.99 51.71 51.37 51.33 52.09 50.79 49.86 49.84 48.13 47.33 47.29 46.99 47.23 46.73 45.94 45.15 45.00 45.10 45.00
36.82 42.48 39.04 42.94 43.43 42.85 44.09 43.16 44.72 44.54 44.52 44.56 43.92 44.91 44.77 44.62 43.67 42.61 46.32 49.07 47.48 48.94 49.78 49.79 50.34 50.14 51.02 50.65 49.46 50.45 51.71 52.06 52.45 51.39 51.54 53.66 53.27 52.38 50.60 49.95 48.70 48.37 49.58 50.15 48.80 48.48 48.13 46.43 45.84 45.87 45.41 44.61 41.41 45.71
37.51 39.66 42.33 43.78 44.59 46.42 44.87 45.08 45.92 44.06 44.24 45.31 46.83 46.33 45.67 42.38 41.48 45.17 49.14 50.21 50.16 51.55 52.51 52.54 52.11 51.74 51.19 51.42 52.30 53.14 54.38 54.51 54.13 53.95 54.84 54.60 53.84 53.45 52.78 50.92 49.47 50.16 49.67 49.65 49.52 49.30 48.45 47.61 46.01 46.01 45.95 45.42 45.52 45.68
41.85 43.92 41.21 45.08 45.02 45.78 42.52 43.30 43.44 45.01 46.46 49.01 48.35 45.24 44.56 45.22 44.49 48.81 50.28 51.75 52.57 53.56 53.34 55.56 54.88 54.50 53.85 54.32 54.41 54.83 52.33 51.65 51.50 51.00 50.80 50.39 50.58 50.60 51.05 50.97 50.71 43.68 49.84 50.81 50.51 49.88 49.63 49.32 47.88 46.62 46.31 45.97 45.95 46.78
41.03 43.20 44.56 42.17 43.34 44.08 45.12 46.21 47.08 48.87 50.64 49.76 47.32 47.03 47.53 50.13 51.45 52.11 51.60 51.94 51.76 51.96 50.72 50.35 48.76 52.66 53.69 53.87 53.89 52.97 52.12 51.77 49.84 47.82 47.36 47.43 48.88 50.09 49.89 50.05 49.36 50.11 51.36 51.11 45.54 49.47 51.84 50.15 49.15 48.37 47.45 47.84 48.97 49.52
40.80 44.78 43.32 43.03 43.25 45.34 47.98 49.97 49.42 51.96 53.01 52.34 52.29 51.19 50.69 50.72 51.32 52.16 50.75 49.04 50.46 51.39 51.85 49.36 48.38 51.26 49.81 50.24 49.29 49.52 49.75 49.90 50.50 49.66 48.11 48.44 49.84 51.01 50.48 50.12 50.31 50.61 50.58 51.02 50.06 48.39 43.31 48.42 46.74 50.30 49.54 49.77 49.90 49.59
42.50 43.18 41.88 43.43 45.86 49.31 51.24 52.37 52.67 52.80 52.52 51.87 52.11 49.76 48.67 49.49 48.68 48.14 48.64 49.53 49.78 49.45 49.07 48.10 47.87 47.65 47.94 47.66 47.87 47.93 48.58 49.45 49.82 51.73 51.54 51.19 52.07 51.09 50.70 50.09 49.85 50.03 50.12 50.08 50.04 50.10 49.94 49.16 49.01 48.77 48.93 48.69 48.71 47.43
41.53 41.90 43.51 45.25 46.98 51.33 52.55 50.31 50.22 48.76 49.25 49.09 47.71 47.35 47.62 45.79 45.02 47.70 48.69 49.15 49.43 49.19 47.26 48.26 49.07 49.28 49.36 49.75 49.06 49.02 44.05 49.68 49.59 49.20 51.05 51.15 51.33 51.68 51.78 51.04 50.62 50.65 50.47 50.13 49.76 49.96 50.14 49.50 48.79 49.00 48.16 48.60 48.77 48.87
41.32 43.18 46.45 47.26 46.82 47.95 50.29 50.29 49.15 48.35 47.31 46.27 47.28 47.43 46.48 46.85 46.22 48.32 49.82 49.20 49.49 49.43 49.08 49.22 49.18 49.10 50.17 50.54 49.62 47.70 44.16 46.51 44.00 41.18 43.01 43.08 42.73 44.57 48.44 49.41 50.59 51.20 50.44 49.62 49.16 49.54 49.62 49.61 48.92 48.46 48.40 48.15 48.01 47.46
MSLP
1019.51 1019.68 1019.73 1019.76 1019.76 1019.68 1019.39 1019.37 1019.20 1018.91 1018.60 1018.33 1018.02 1017.85 1017.73 1017.54 1017.35 1017.46 1017.28 1017.28 1017.36 1016.50 1013.80 1012.16 1011.24 1010.57 1010.49 1010.91 1011.48 1011.86 1012.50 1012.90 1013.94 1015.37 1016.24 1016.58 1016.21 1015.83 1015.68 1015.53 1015.60 1016.30 1016.82 1017.18 1017.28 1016.55 1015.51 1014.43 1014.06 1014.39 1014.78 1014.38 1014.38 1014.69
1019.29 1019.26 1019.25 1019.37 1019.44 1019.33 1019.14 1019.05 1018.85 1018.53 1018.34 1018.12 1017.73 1017.50 1017.40 1017.31 1017.24 1017.24 1017.50 1016.90 1016.94 1017.09 1014.27 1012.49 1011.01 1010.18 1009.87 1009.72 1010.59 1011.88 1012.42 1012.97 1013.66 1015.19 1016.39 1016.63 1016.66 1016.48 1016.52 1016.45 1016.04 1016.59 1016.47 1016.69 1016.98 1016.37 1015.42 1015.11 1015.02 1014.81 1014.89 1014.69 1014.62 1015.02
1019.01 1019.00 1019.03 1019.01 1018.99 1018.99 1018.85 1018.71 1018.51 1018.25 1017.99 1017.76 1017.49 1017.19 1017.00 1016.96 1017.03 1017.13 1017.20 1017.18 1016.95 1016.52 1014.04 1012.40 1010.14 1009.29 1009.38 1009.29 1008.95 1010.34 1012.19 1012.53 1013.51 1014.04 1015.35 1016.30 1016.52 1016.52 1016.91 1016.63 1016.38 1016.28 1016.34 1016.75 1016.83 1015.91 1015.54 1015.28 1015.03 1014.89 1014.88 1014.78 1014.78 1015.17
1018.68 1018.76 1018.61 1018.67 1018.74 1018.64 1018.49 1018.36 1018.14 1017.91 1017.60 1017.41 1017.13 1016.86 1016.65 1016.56 1016.61 1016.77 1016.84 1017.00 1016.96 1016.28 1015.17 1011.80 1009.99 1009.52 1009.09 1008.85 1008.87 1009.61 1010.82 1012.21 1013.21 1014.06 1015.40 1016.21 1016.45 1016.07 1016.40 1016.20 1016.27 1016.09 1016.42 1016.64 1016.62 1015.87 1015.70 1015.00 1015.02 1014.73 1014.72 1014.79 1015.02 1015.31
1018.38 1018.36 1018.31 1018.58 1018.50 1018.22 1018.05 1017.92 1017.71 1017.48 1017.28 1017.03 1016.75 1016.48 1016.27 1016.19 1016.24 1016.36 1016.29 1015.87 1016.21 1016.32 1015.21 1013.02 1011.06 1010.09 1009.66 1009.65 1009.82 1010.29 1011.16 1012.33 1013.69 1014.88 1015.93 1016.40 1016.11 1016.35 1016.56 1016.52 1016.30 1015.49 1015.39 1015.63 1015.44 1014.70 1014.66 1014.56 1014.39 1014.53 1014.66 1014.68 1015.01 1015.39
1018.08 1018.24 1018.19 1018.10 1018.07 1017.81 1017.65 1017.46 1017.22 1017.07 1016.84 1016.60 1016.35 1016.12 1015.93 1015.91 1016.07 1016.44 1016.04 1015.12 1015.42 1015.91 1015.21 1013.64 1011.58 1010.62 1010.29 1010.36 1010.66 1011.35 1012.01 1012.89 1013.85 1014.70 1015.65 1015.87 1015.57 1015.75 1016.38 1016.32 1014.62 1014.28 1014.21 1014.12 1014.11 1014.03 1014.44 1014.36 1014.39 1014.43 1014.50 1014.64 1015.19 1015.75
1017.66 1017.84 1017.79 1017.66 1017.61 1017.37 1017.21 1017.03 1016.81 1016.58 1016.33 1016.11 1015.84 1015.69 1015.54 1015.59 1015.88 1015.90 1015.19 1015.18 1015.03 1015.37 1014.96 1013.78 1012.15 1011.07 1010.73 1011.06 1011.82 1012.31 1012.67 1013.38 1013.86 1014.84 1015.35 1015.69 1015.81 1015.75 1016.08 1015.60 1013.80 1013.48 1013.56 1013.79 1013.78 1013.97 1014.42 1014.46 1014.47 1014.48 1014.53 1014.79 1015.22 1015.95
1017.26 1017.38 1017.39 1017.26 1017.16 1016.96 1016.80 1016.60 1016.34 1016.07 1015.87 1015.62 1015.33 1015.23 1015.23 1015.27 1015.52 1015.18 1013.20 1013.73 1014.87 1014.75 1014.49 1013.59 1012.59 1011.90 1011.14 1011.90 1012.68 1013.06 1013.51 1013.93 1014.42 1015.00 1015.31 1015.51 1016.00 1015.93 1015.52 1013.82 1013.37 1013.19 1013.25 1013.51 1013.62 1013.71 1013.56 1013.84 1014.14 1014.56 1014.76 1015.05 1015.56 1016.14
1016.87 1016.99 1016.96 1016.82 1016.74 1016.55 1016.33 1016.12 1015.89 1015.62 1015.39 1015.08 1014.84 1014.95 1015.31 1015.29 1015.06 1013.64 1012.82 1013.22 1014.36 1014.74 1013.85 1013.16 1012.40 1011.96 1011.38 1012.37 1012.88 1013.36 1013.81 1014.63 1014.95 1014.96 1015.16 1015.33 1015.77 1015.12 1013.38 1012.98 1012.95 1012.78 1012.74 1012.86 1013.59 1013.74 1013.71 1013.98 1014.30 1014.53 1014.82 1015.18 1015.50 1016.19
1016.49 1016.49 1016.40 1016.37 1016.33 1016.21 1015.94 1015.80 1015.46 1015.16 1014.69 1014.41 1014.65 1014.97 1014.68 1013.52 1012.99 1013.18 1013.33 1013.75 1014.55 1013.59 1013.29 1012.67 1011.95 1011.58 1011.53 1012.56 1013.18 1013.85 1014.24 1014.62 1014.88 1014.67 1014.79 1014.83 1014.59 1013.15 1012.23 1011.89 1011.85 1011.94 1012.13 1012.64 1013.43 1013.83 1013.75 1013.82 1014.26 1014.35 1014.47 1014.74 1015.11 1015.65
1015.99 1015.99 1015.96 1016.02 1015.95 1015.80 1015.67 1015.48 1015.18 1014.71 1014.07 1014.26 1014.53 1014.32 1013.20 1012.65 1012.79 1013.14 1013.13 1013.38 1013.34 1013.14 1012.42 1011.57 1011.32 1011.35 1011.19 1011.74 1012.75 1013.30 1013.88 1014.32 1014.58 1014.31 1014.50 1014.47 1013.77 1012.09 1011.21 1011.39 1011.34 1011.51 1011.76 1011.90 1011.87 1012.23 1012.78 1013.08 1013.45 1014.03 1014.36 1014.50 1014.92 1015.39
1015.60 1015.60 1015.67 1015.70 1015.62 1015.57 1015.45 1015.27 1014.99 1014.82 1014.77 1015.02 1015.08 1014.42 1013.70 1012.91 1013.05 1013.16 1013.04 1012.92 1012.64 1012.12 1011.47 1011.15 1010.86 1010.87 1011.38 1011.34 1012.18 1013.37 1013.34 1013.78 1013.77 1013.62 1014.06 1013.72 1012.03 1010.98 1010.90 1010.87 1011.05 1011.32 1011.48 1011.79 1011.85 1012.14 1012.50 1012.94 1013.17 1013.47 1013.84 1014.27 1014.70 1015.04
1015.43 1015.44 1015.45 1015.43 1015.37 1015.29 1015.15 1015.05 1014.93 1014.92 1014.61 1014.57 1014.69 1014.13 1013.72 1013.37 1013.29 1012.96 1012.63 1012.42 1011.99 1011.07 1010.68 1010.55 1010.72 1010.63 1011.42 1011.24 1012.39 1013.33 1012.86 1012.75 1012.58 1013.23 1013.01 1012.23 1010.91 1010.53 1010.61 1010.68 1011.00 1011.25 1011.35 1011.58 1011.90 1012.05 1012.29 1012.75 1013.17 1013.40 1013.87 1014.29 1014.80 1015.29
1015.22 1015.17 1015.15 1015.04 1014.92 1014.84 1014.84 1014.84 1014.81 1014.73 1014.62 1014.62 1014.29 1014.10 1013.88 1013.21 1012.86 1012.31 1012.12 1011.86 1011.10 1010.70 1010.54 1010.42 1010.63 1010.76 1010.93 1011.25 1011.73 1012.31 1011.80 1011.72 1012.22 1012.37 1011.78 1010.97 1010.07 1009.83 1010.24 1010.47 1010.80 1011.14 1011.35 1011.61 1011.85 1012.13 1012.47 1012.77 1013.23 1013.58 1013.99 1014.36 1014.91 1015.59
1014.99 1014.91 1014.80 1014.58 1014.37 1014.38 1014.43 1014.53 1014.62 1014.68 1014.63 1014.45 1014.29 1013.92 1013.39 1012.81 1012.58 1012.22 1011.89 1011.63 1011.01 1010.60 1010.44 1010.49 1010.59 1010.74 1010.93 1011.10 1011.12 1011.25 1011.37 1011.05 1010.94 1010.53 1010.34 1009.61 1009.18 1009.65 1010.05 1010.34 1010.61 1011.00 1011.42 1011.75 1011.95 1012.35 1012.73 1013.08 1013.52 1013.88 1014.29 1014.71 1015.10 1015.71
1014.74 1014.59 1014.50 1014.32 1014.22 1014.14 1014.19 1014.30 1014.42 1014.55 1014.39 1014.21 1013.97 1013.61 1013.14 1013.08 1012.56 1012.18 1011.77 1011.51 1010.98 1010.74 1010.35 1010.16 1010.54 1010.57 1010.49 1010.47 1010.65 1010.28 1010.23 1009.79 1009.55 1009.33 1008.79 1008.87 1009.15 1009.38 1009.65 1009.96 1010.34 1010.70 1011.20 1011.60 1012.00 1012.43 1012.91 1013.37 1013.70 1014.07 1014.71 1015.09 1015.50 1015.85
1014.67 1014.59 1014.34 1014.26 1014.19 1014.21 1014.15 1014.26 1014.33 1014.37 1014.14 1013.78 1013.45 1013.16 1013.11 1012.85 1012.49 1011.90 1011.50 1011.16 1010.94 1010.94 1010.64 1010.32 1010.80 1010.54 1010.62 1010.23 1009.91 1009.29 1009.11 1008.71 1008.46 1008.42 1008.45 1008.56 1008.77 1008.98 1009.39 1009.91 1010.34 1010.83 1011.31 1011.70 1012.14 1012.62 1013.09 1013.61 1013.95 1014.48 1015.15 1015.47 1015.80 1016.18
1014.70 1014.44 1014.36 1014.26 1014.30 1014.26 1014.21 1014.23 1014.31 1014.18 1013.83 1013.38 1013.49 1012.92 1012.89 1012.50 1012.06 1011.58 1011.08 1010.90 1011.10 1010.97 1010.68 1010.49 1010.16 1010.75 1010.62 1010.11 1009.70 1009.57 1009.59 1009.39 1008.79 1008.30 1008.24 1008.15 1008.36 1008.70 1009.00 1009.68 1010.09 1010.53 1011.11 1011.66 1012.08 1012.65 1013.26 1013.78 1014.19 1014.44 1014.86 1015.53 1016.13 1016.56
1014.59 1014.55 1014.45 1014.35 1014.38 1014.39 1014.35 1014.31 1014.33 1013.92 1013.10 1012.83 1012.73 1012.59 1012.44 1012.16 1011.82 1011.47 1011.20 1010.89 1010.87 1010.69 1010.60 1010.67 1010.45 1010.33 1010.19 1009.71 1009.42 1009.31 1009.82 1009.92 1009.75 1009.19 1008.46 1008.20 1008.32 1008.37 1008.82 1009.30 1009.91 1010.59 1011.19 1011.76 1012.25 1012.73 1013.21 1013.43 1013.61 1014.23 1014.72 1015.39 1015.94 1016.36
1014.42 1014.37 1014.37 1014.38 1014.40 1014.39 1014.24 1014.11 1013.95 1013.66 1012.88 1012.24 1012.17 1012.06 1011.96 1011.56 1011.06 1010.94 1010.88 1010.81 1010.85 1010.77 1010.90 1010.68 1010.22 1009.62 1009.35 1008.93 1008.79 1009.19 1009.26 1009.87 1009.71 1009.26 1008.91 1008.54 1008.62 1008.66 1009.19 1009.64 1010.31 1010.92 1011.60 1012.13 1012.56 1012.88 1013.20 1013.83 1014.12 1014.29 1014.62 1014.98 1015.64 1016.16
1014.27 1014.19 1014.35 1014.38 1014.42 1014.46 1014.25 1013.70 1013.31 1012.88 1012.22 1011.73 1010.98 1010.90 1010.82 1010.64 1010.56 1010.42 1010.48 1010.31 1010.73 1010.35 1010.03 1009.49 1009.25 1008.80 1008.88 1008.71 1008.75 1008.48 1008.59 1009.05 1009.51 1009.20 1008.90 1009.01 1009.36 1009.48 1009.89 1010.31 1010.54 1011.25 1011.80 1012.27 1012.68 1013.07 1013.16 1013.34 1013.73 1014.14 1014.48 1014.91 1015.39 1015.88
1014.17 1014.13 1014.41 1014.50 1014.44 1014.05 1013.80 1013.17 1012.84 1012.18 1011.83 1010.70 1010.31 1009.89 1009.71 1009.61 1009.48 1009.35 1009.39 1009.80 1009.47 1008.79 1008.43 1008.35 1008.31 1008.25 1008.38 1008.60 1008.77 1008.28 1008.14 1008.77 1009.04 1009.60 1008.86 1008.70 1009.38 1009.90 1010.42 1010.64 1011.16 1011.60 1011.90 1012.10 1012.48 1012.93 1013.30 1013.49 1013.73 1014.12 1014.45 1014.89 1015.42 1015.79
1014.06 1014.06 1014.13 1013.99 1014.03 1013.62 1012.97 1012.49 1012.30 1011.42 1010.81 1009.73 1009.15 1008.88 1008.60 1008.36 1008.23 1008.36 1008.64 1008.26 1007.68 1006.85 1006.77 1007.10 1007.30 1007.44 1007.52 1007.68 1008.24 1008.35 1008.13 1008.83 1009.23 1009.35 1009.39 1008.83 1009.23 1009.74 1010.16 1010.38 1010.69 1011.17 1011.87 1012.23 1012.43 1012.86 1013.30 1013.50 1013.83 1014.23 1014.65 1015.13 1015.62 1016.20
1014.05 1013.86 1013.47 1013.25 1013.31 1012.72 1012.08 1011.73 1011.11 1010.56 1009.72 1009.13 1008.52 1007.91 1007.65 1007.72 1007.96 1007.99 1007.74 1007.03 1006.48 1006.26 1006.19 1006.20 1006.54 1007.07 1007.33 1007.60 1007.74 1007.78 1007.68 1007.87 1008.49 1008.86 1009.04 1009.25 1009.26 1009.42 1009.59 1009.94 1010.53 1010.82 1011.02 1011.68 1012.00 1012.51 1013.36 1013.69 1013.87 1014.29 1014.72 1015.20 1015.67 1015.96
1014.03 1013.62 1013.27 1012.52 1012.11 1011.93 1011.31 1010.53 1009.82 1009.38 1008.69 1008.14 1007.89 1007.49 1007.43 1007.54 1007.65 1007.48 1007.09 1006.61 1006.32 1006.19 1005.97 1006.02 1006.23 1006.42 1006.59 1006.66 1006.82 1006.95 1007.25 1007.44 1007.99 1008.24 1008.22 1008.61 1008.99 1009.50 1009.77 1010.18 1010.29 1010.39 1010.83 1011.59 1012.02 1012.61 1013.18 1013.52 1013.88 1014.22 1014.55 1014.91 1015.24 1015.60
1013.26 1012.61 1012.46 1011.63 1011.14 1010.99 1010.07 1009.25 1008.68 1008.44 1008.09 1007.68 1007.34 1007.26 1007.30 1007.31 1007.23 1007.14 1006.82 1006.42 1006.21 1006.02 1005.91 1005.91 1006.05 1006.28 1006.45 1006.57 1006.47 1006.57 1006.87 1007.11 1007.29 1007.48 1007.81 1008.12 1008.37 1008.68 1009.13 1009.53 1010.06 1010.68 1010.81 1010.90 1011.51 1012.10 1012.64 1013.10 1013.48 1013.89 1014.21 1014.44 1014.67 1015.02
1012.51 1011.88 1011.47 1010.82 1010.50 1010.02 1009.47 1008.70 1008.30 1008.18 1007.75 1007.20 1007.17 1007.15 1007.07 1007.18 1007.52 1007.12 1006.33 1005.97 1005.98 1005.77 1005.75 1005.75 1005.82 1006.00 1006.16 1006.38 1006.30 1006.31 1006.42 1006.72 1007.18 1007.52 1007.61 1007.80 1008.11 1008.31 1008.80 1009.10 1009.61 1009.92 1010.34 1010.74 1011.15 1011.50 1012.05 1012.57 1013.01 1013.29 1013.55 1013.84 1014.08 1014.46
1012.01 1011.33 1010.78 1010.08 1009.80 1009.36 1009.20 1008.71 1008.16 1007.60 1007.45 1007.15 1007.16 1007.05 1006.88 1006.81 1006.77 1006.43 1006.04 1005.58 1005.72 1005.63 1005.58 1005.65 1005.83 1005.80 1005.90 1006.15 1006.48 1006.77 1006.99 1007.15 1007.59 1007.78 1008.06 1008.41 1008.58 1008.74 1008.92 1009.14 1009.26 1009.51 1009.96 1010.39 1010.79 1011.15 1011.54 1011.90 1012.18 1012.56 1012.96 1013.34 1013.66 1013.92
1011.49 1010.56 1010.18 1009.60 1009.15 1008.85 1008.53 1008.24 1007.76 1007.51 1007.50 1007.30 1007.11 1006.84 1006.91 1006.58 1006.22 1006.14 1005.83 1005.71 1005.90 1005.79 1005.97 1006.12 1006.29 1006.12 1006.32 1006.58 1006.71 1006.90 1006.92 1006.92 1007.54 1008.01 1008.35 1008.71 1008.99 1009.18 1009.11 1009.23 1009.58 1009.93 1010.26 1010.64 1010.79 1010.93 1011.13 1011.38 1011.66 1011.86 1011.92 1012.35 1012.52 1012.70
1010.49 1009.78 1009.51 1008.93 1008.65 1008.23 1008.11 1007.93 1007.85 1007.64 1007.42 1007.31 1007.33 1007.10 1006.94 1006.60 1006.23 1006.00 1005.97 1005.95 1006.00 1006.25 1006.38 1006.53 1006.65 1006.61 1006.98 1007.06 1007.41 1007.51 1007.43 1007.61 1007.45 1007.73 1008.15 1008.52 1008.78 1008.83 1009.07 1009.32 1009.59 1009.87 1010.16 1010.39 1010.65 1011.15 1011.29 1011.43 1011.74 1011.93 1012.14 1012.54 1012.87 1013.13
1009.74 1009.36 1009.08 1008.71 1008.51 1008.07 1007.51 1007.54 1007.47 1007.52 1007.33 1007.31 1007.33 1007.38 1007.17 1006.85 1006.39 1006.27 1006.23 1006.28 1006.32 1006.41 1006.54 1006.77 1006.97 1007.14 1007.17 1007.35 1007.50 1007.76 1007.86 1007.72 1007.70 1007.80 1008.05 1008.13 1008.42 1008.73 1008.99 1009.26 1009.46 1009.75 1010.12 1010.41 1010.65 1010.96 1011.27 1011.45 1011.66 1011.87 1012.13 1012.42 1012.61 1012.73
1009.29 1008.93 1008.60 1008.37 1008.04 1007.84 1007.55 1007.57 1007.53 1007.49 1007.45 1007.45 1007.63 1007.45 1007.21 1006.99 1007.14 1006.80 1006.75 1006.68 1006.84 1007.02 1007.15 1007.15 1007.15 1007.23 1007.30 1007.27 1007.39 1007.51 1007.54 1007.52 1007.60 1007.81 1008.06 1008.18 1008.34 1008.55 1008.73 1008.97 1009.28 1009.61 1010.02 1010.37 1010.70 1010.99 1011.23 1011.40 1011.59 1011.82 1012.01 1012.15 1012.23 1012.35
1008.84 1008.50 1008.19 1007.96 1007.83 1007.84 1007.73 1007.82 1007.79 1007.83 1007.91 1008.11 1008.22 1008.20 1008.09 1008.02 1007.64 1007.09 1006.56 1006.66 1006.90 1006.89 1007.04 1007.08 1007.12 1007.17 1007.27 1007.51 1007.64 1007.77 1007.72 1007.79 1007.79 1007.79 1007.93 1008.21 1008.47 1008.56 1008.70 1008.96 1009.24 1009.55 1009.92 1010.21 1010.50 1010.80 1011.04 1011.16 1011.33 1011.52 1011.69 1011.84 1011.87 1011.87
Wind_Speed
7 7 8 9 9 10 9 10 10 12 12 11 12 12 10 9 7 1 4 4 3 2 7 3 4 2 1 2 5 3 4 4 4 5 3 2 2 2 3 1 3 3 3 1 2 3 4 2 1 2 6 1 0 3
7 7 6 7 9 10 9 10 10 11 11 11 12 11 9 8 7 2 3 2 3 2 7 3 9 11 7 6 8 1 4 4 5 6 1 3 1 2 3 2 2 0 6 5 7 6 3 3 1 2 2 2 3 6
7 7 7 6 8 10 10 10 10 10 10 11 12 12 10 7 7 5 2 2 1 2 6 3 4 2 1 6 5 7 2 3 2 3 5 3 3 4 4 5 3 1 3 3 3 3 3 1 3 3 1 2 3 2
7 8 5 6 9 9 9 10 10 10 10 11 12 12 12 8 8 7 2 2 0 0 1 7 4 3 4 3 6 4 8 6 6 4 3 3 3 3 4 2 4 5 6 5 3 6 4 6 6 3 2 4 2 4
7 7 6 9 9 9 9 10 10 10 11 11 12 12 10 7 7 4 3 5 4 1 2 5 7 2 4 1 9 8 7 5 3 3 3 3 2 3 1 2 3 6 8 6 8 8 6 4 4 7 4 3 4 6
7 7 8 8 8 9 9 10 11 11 11 12 12 12 9 6 3 1 4 4 7 4 1 3 4 3 4 6 9 7 4 4 4 5 3 2 2 4 3 4 6 5 5 6 4 4 5 2 3 4 4 2 3 3
6 8 9 8 8 9 9 10 11 11 12 12 11 11 8 5 3 4 3 0 5 2 2 3 4 4 1 4 3 3 4 2 3 3 2 3 1 4 3 4 6 8 7 6 3 7 1 5 5 7 3 3 4 7
7 8 9 9 9 9 9 10 11 12 12 12 11 8 5 3 3 5 5 14 4 3 1 2 4 2 0 1 2 2 3 3 5 2 2 3 1 2 4 8 5 3 5 5 7 3 4 6 5 5 4 4 7 6
8 8 9 10 9 9 9 10 12 12 13 12 9 3 2 2 2 4 4 10 2 1 2 3 4 5 2 1 2 3 3 1 1 1 2 4 0 5 9 8 6 9 8 7 8 3 3 5 7 6 6 6 7 6
9 8 8 9 8 9 9 10 12 13 15 10 3 2 3 5 3 8 2 3 3 3 2 3 1 3 4 1 1 3 2 2 1 4 3 3 6 6 7 9 8 9 9 9 8 4 3 3 7 7 9 7 8 9
9 8 7 7 8 8 9 10 11 14 3 0 1 3 3 6 3 1 2 3 2 3 3 4 5 4 2 4 4 2 4 2 2 5 4 2 5 7 5 9 8 8 9 10 8 8 8 6 6 8 6 7 7 9
6 6 6 7 7 8 8 8 9 4 1 2 3 4 3 2 2 2 3 1 3 6 3 5 5 5 2 3 4 2 4 2 4 4 3 3 7 6 4 8 8 8 9 8 6 8 8 7 7 7 6 7 7 7
4 5 6 7 7 8 8 8 6 6 6 1 2 2 3 1 1 5 6 3 2 3 4 3 4 4 1 2 5 2 4 5 4 2 5 7 5 4 4 4 5 5 6 6 7 5 6 5 6 7 7 4 6 6
5 6 7 7 8 8 9 8 6 3 1 1 1 2 2 3 4 3 2 2 5 1 1 2 2 3 2 4 5 5 3 4 3 3 6 4 8 6 5 4 8 8 8 8 8 7 7 8 6 5 6 7 9 8
6 6 7 10 9 9 10 7 3 1 0 1 2 4 5 3 2 4 4 2 4 2 1 2 2 2 1 3 3 4 3 5 7 6 5 6 6 5 7 7 7 8 7 7 6 6 6 7 7 7 7 7 7 7
6 8 3 6 5 3 4 3 1 1 2 2 4 3 1 1 3 2 2 3 2 3 2 3 3 2 4 3 4 7 6 7 5 5 4 2 3 6 6 7 7 7 8 7 6 6 7 8 10 9 7 6 6 9
3 2 5 0 1 3 1 1 1 2 3 3 4 2 3 1 3 3 3 2 0 0 3 4 2 2 2 2 4 3 4 4 4 3 3 5 5 7 6 6 7 8 7 7 6 7 5 6 7 8 8 5 6 6
1 2 4 1 1 0 1 1 0 2 5 4 3 3 3 3 3 3 2 2 1 1 1 3 5 2 3 3 2 3 4 7 5 2 3 4 4 6 8 9 8 8 8 7 7 6 6 7 9 8 6 8 7 7
0 2 6 2 2 1 0 1 2 3 5 3 3 3 2 3 3 4 2 2 1 2 2 2 3 4 5 5 4 1 4 3 5 4 4 1 5 8 7 7 7 6 7 7 7 7 6 7 6 5 7 8 8 7
5 5 2 3 2 1 2 2 1 3 3 3 2 3 4 4 4 4 6 4 3 2 1 3 4 4 3 3 1 1 1 4 5 3 2 2 2 6 7 7 5 6 5 5 4 4 5 4 3 5 8 9 9 7
1 1 4 1 0 2 2 2 3 3 3 3 2 3 4 2 3 4 4 4 3 4 4 5 4 4 4 3 2 2 1 4 6 3 3 3 2 4 4 3 5 4 3 4 4 3 4 5 5 5 8 6 5 4
2 6 2 2 1 3 3 4 3 2 3 3 2 3 3 2 3 4 4 2 4 5 5 4 4 4 4 5 6 3 2 6 3 5 1 7 4 3 3 4 4 4 4 5 4 5 3 3 5 5 5 5 4 4
3 4 1 3 3 2 5 2 3 4 4 3 2 3 3 3 2 4 3 4 5 5 7 7 6 6 8 8 5 10 12 7 4 2 4 2 3 4 4 5 4 7 5 3 3 4 4 5 5 6 5 4 3 3
1 2 3 4 5 4 1 3 3 3 3 3 3 3 2 1 2 1 4 3 3 1 3 7 5 4 2 4 7 10 9 4 4 3 4 4 4 3 4 5 4 3 3 5 5 7 5 5 6 4 5 4 4 4
2 3 3 4 3 3 4 4 4 2 4 2 2 3 1 1 2 2 3 3 3 2 1 2 4 4 4 2 1 2 5 5 5 5 3 3 4 4 4 2 3 4 5 7 6 7 5 5 5 5 5 5 6 7
4 4 5 3 3 3 3 3 2 2 3 3 3 1 1 1 2 3 2 3 2 2 2 3 3 3 3 4 3 2 3 4 3 2 1 4 4 5 7 7 5 2 3 6 7 7 6 5 5 7 6 7 8 6
3 4 5 4 3 2 4 3 3 2 3 2 2 1 1 4 2 4 3 2 2 2 1 1 2 1 3 3 2 3 4 5 3 1 1 4 3 4 6 8 7 4 6 6 5 6 7 6 5 6 6 4 5 7
4 3 4 2 3 2 3 3 3 1 0 2 1 3 4 2 1 2 3 2 1 1 2 2 2 1 2 3 4 4 4 6 6 6 5 4 3 3 3 3 3 11 6 6 7 5 4 5 5 6 6 6 5 6
4 3 2 5 4 3 4 2 3 1 2 2 2 0 3 2 2 2 3 3 2 3 3 3 4 3 5 5 3 3 4 7 8 8 7 3 3 2 2 3 4 4 4 4 5 7 8 6 7 8 11 8 7 5
4 3 3 3 2 1 1 2 2 2 2 2 1 3 1 2 3 2 1 1 4 4 3 4 3 4 4 5 4 3 3 1 1 5 5 4 5 4 4 4 4 4 4 4 5 4 6 4 5 3 5 3 3 3
2 1 2 1 2 3 3 2 2 2 1 2 1 2 2 3 3 3 3 2 4 4 4 4 4 3 5 4 4 4 1 2 3 3 4 3 4 4 5 4 4 4 3 3 4 4 3 3 3 4 5 5 6 5
2 3 1 3 2 1 3 1 1 2 3 3 4 4 5 5 4 4 1 3 3 3 2 2 3 3 3 1 2 2 2 2 2 2 8 4 4 5 4 4 4 4 5 5 4 3 4 4 4 4 4 6 6 6
1 1 2 2 3 3 2 1 3 3 5 5 4 3 2 0 2 3 3 1 3 3 4 3 2 2 3 5 4 3 4 3 5 5 5 4 4 3 2 3 4 5 6 5 4 4 5 6 5 5 5 6 6 6
Wind_Direction
239 258 270 285 293 294 301 304 315 321 324 332 328 316 309 310 319 248 271 193 166 261 279 262 314 302 97 107 144 216 55 357 50 65 114 209 150 204 97 187 147 142 124 194 70 84 275 22 16 157 215 257 181 104
250 262 270 286 298 297 299 305 307 319 322 318 316 314 301 296 299 187 284 303 155 199 255 298 254 251 214 191 136 40 176 165 175 96 162 119 142 63 146 226 23 346 175 184 167 216 263 303 278 322 225 224 168 135
255 263 274 289 302 296 299 306 311 315 317 316 312 315 303 272 272 225 237 273 61 291 298 333 268 21 202 212 184 117 264 156 131 159 148 154 142 128 144 240 152 261 148 136 66 265 245 289 289 249 224 294 357 52
259 266 273 294 296 292 298 307 311 313 319 316 311 311 305 271 254 232 205 202 251 145 263 281 333 333 329 349 66 86 129 70 99 77 97 130 155 167 198 184 162 191 131 158 269 275 294 247 209 252 284 297 223 108
270 279 289 279 286 293 301 308 313 313 314 313 311 308 301 286 253 243 237 227 223 120 225 281 311 317 355 23 82 83 94 102 100 73 81 214 139 119 40 82 258 187 173 159 216 215 165 232 189 185 198 227 166 137
256 270 274 277 287 296 302 309 316 309 311 311 303 301 292 270 170 116 299 197 190 195 157 318 293 316 55 56 75 73 75 85 85 130 186 217 244 105 127 202 251 208 194 170 210 177 144 111 179 189 196 186 152 174
258 275 285 283 290 298 299 304 311 307 309 307 300 292 277 237 169 198 216 304 187 130 196 302 321 309 69 73 41 52 39 71 101 128 144 148 199 92 122 193 242 208 208 198 188 123 143 173 200 201 181 132 138 107
259 270 283 286 289 294 296 302 308 303 303 306 303 297 271 219 259 286 250 202 174 153 195 204 262 5 354 94 86 5 65 27 13 139 67 142 77 80 246 241 247 200 167 164 180 255 154 121 116 153 156 127 120 130
254 263 271 279 281 291 295 301 306 303 300 303 303 260 55 116 214 244 351 156 163 316 262 182 166 218 57 74 90 41 81 65 304 143 237 103 324 216 223 206 196 191 178 186 147 140 104 129 170 167 149 138 134 154
256 259 265 270 282 287 293 299 309 305 303 304 137 110 279 220 259 125 274 91 167 240 234 240 142 206 113 95 34 89 38 162 165 251 108 135 249 255 233 210 194 185 191 131 125 189 209 249 164 182 193 188 178 171
256 257 262 271 283 289 291 301 314 321 298 110 226 233 260 311 87 79 192 160 177 235 195 232 180 163 225 134 167 186 173 167 138 259 144 266 277 246 231 204 203 184 176 190 183 184 176 173 190 176 197 195 167 157
261 258 268 276 278 284 288 302 332 5 38 246 284 291 284 21 48 165 209 291 183 217 208 174 206 185 171 101 100 239 157 110 213 149 117 270 254 253 245 206 190 183 176 184 187 184 188 191 192 181 177 172 175 186
281 276 274 275 276 279 285 298 318 291 301 131 220 251 61 228 72 195 196 240 240 218 204 189 194 150 100 90 76 244 181 195 106 108 221 224 256 268 233 182 168 177 170 164 175 180 187 184 174 159 165 151 135 138
286 285 286 282 277 275 274 283 305 337 58 234 164 300 223 238 251 208 185 234 262 248 228 152 112 170 159 133 135 213 211 111 139 199 229 241 239 236 196 184 138 180 183 173 175 171 179 175 176 147 150 146 140 145
292 295 295 286 265 268 256 247 261 86 290 235 117 223 216 244 257 256 253 276 262 276 149 94 74 132 125 131 192 117 158 205 196 218 220 233 241 188 174 171 161 164 168 173 167 168 167 153 148 132 138 140 129 120
312 306 253 254 310 327 143 140 130 185 247 237 222 254 213 35 268 293 270 271 294 313 315 76 128 139 222 181 149 196 171 193 214 217 219 213 207 191 180 172 170 160 160 162 161 162 149 152 161 155 135 141 142 141
308 250 332 6 25 123 84 90 152 221 240 232 256 214 193 249 234 245 236 259 274 77 207 99 58 295 320 233 229 175 192 205 210 243 208 209 212 204 172 142 148 151 156 163 158 159 154 120 118 127 148 171 143 134
235 348 359 48 90 38 34 78 217 251 247 234 229 237 194 221 239 262 249 355 20 319 117 205 135 178 264 251 291 18 348 335 312 268 229 195 181 167 157 159 160 157 156 163 164 147 135 144 162 183 136 136 122 128
84 347 355 354 5 343 109 219 166 264 245 227 239 225 218 239 240 271 283 231 222 171 72 350 188 189 213 212 221 101 344 318 295 292 288 232 186 163 152 136 137 145 154 158 158 171 173 182 175 141 139 149 156 155
263 268 281 352 2 316 248 232 188 254 262 250 228 243 204 210 204 206 224 213 169 175 164 212 217 222 210 227 118 192 20 306 273 262 267 66 134 123 134 134 118 118 108 101 99 113 124 113 129 140 156 161 158 172
191 222 142 83 282 219 270 254 228 230 261 251 237 201 235 183 203 193 213 158 155 210 217 203 218 242 204 185 183 186 53 355 302 255 198 108 53 102 115 93 114 129 141 152 154 166 160 171 155 155 155 154 144 146
240 161 111 180 251 219 244 222 253 298 235 236 254 216 251 224 206 195 147 166 212 223 196 186 212 217 182 200 219 256 254 263 278 285 253 117 130 134 162 159 141 161 163 168 158 169 168 148 140 140 142 127 126 129
315 174 219 187 230 233 260 144 235 224 237 244 209 224 226 221 195 127 187 213 227 219 210 208 202 191 204 203 177 216 235 176 217 240 282 150 152 151 167 177 161 147 153 166 138 128 131 129 118 125 114 116 121 147
96 248 224 191 199 254 253 235 214 255 251 254 238 263 208 141 131 220 246 230 248 269 206 200 160 159 130 154 195 214 231 143 162 187 206 188 179 180 161 151 155 156 141 145 144 134 145 150 132 133 145 145 166 177
220 240 213 258 211 228 232 254 222 232 252 253 256 284 238 121 192 224 248 281 309 299 294 153 165 193 209 247 276 182 164 163 172 206 201 162 114 107 105 145 160 139 128 139 142 145 151 145 154 160 170 178 182 179
225 211 193 225 203 209 238 266 309 270 254 258 237 320 24 48 18 334 285 268 278 271 219 192 178 183 225 215 219 186 177 161 141 116 167 158 153 154 165 163 152 168 193 153 147 161 159 158 157 172 186 195 190 171
252 248 222 229 255 238 261 271 256 227 262 288 357 310 259 74 281 259 278 252 255 268 279 174 161 148 163 175 118 105 103 102 114 212 128 123 144 153 168 164 168 191 159 157 157 159 167 169 177 189 194 165 181 191
254 268 230 232 226 216 235 268 262 248 208 282 298 345 5 139 243 255 244 256 197 97 89 88 42 52 111 103 89 108 112 111 107 104 96 70 62 106 142 128 113 142 154 170 184 180 172 187 189 181 176 173 163 176
249 247 232 264 226 223 222 248 301 50 302 351 5 9 287 255 261 281 290 318 81 105 85 61 33 72 74 71 49 66 137 115 111 95 91 83 59 37 110 128 135 142 148 137 159 187 205 195 190 187 173 184 194 154
257 190 240 253 253 9 294 219 295 317 306 264 277 274 275 293 273 299 347 59 76 94 98 110 133 124 125 117 106 60 16 31 106 131 141 155 181 168 151 144 158 153 147 152 128 98 90 89 100 102 119 130 143 159
272 253 244 272 23 297 271 308 259 240 221 226 305 301 293 299 327 10 57 54 100 98 83 66 61 54 107 123 124 119 57 289 237 164 107 103 125 144 147 153 154 144 144 150 165 167 153 143 134 143 156 180 188 190
218 227 226 175 203 277 270 338 337 46 14 34 1 358 5 39 36 327 355 82 88 90 52 131 150 198 169 110 83 91 169 156 243 178 164 179 169 177 154 140 143 140 149 171 184 187 182 182 166 179 199 218 211 217
237 19 319 253 152 175 302 330 30 25 21 19 16 3 355 18 32 285 325 140 184 176 176 207 232 290 148 136 143 145 108 86 62 75 125 121 126 147 134 143 152 150 153 159 170 178 192 186 192 194 208 221 229 234